Year,Month,Day,Hour,Minute,Value (Times are PST for windgust in km/hr)
2008,06,09,00,00,0.00
2008,06,09,00,01,0.00
2008,06,09,00,02,0.00
2008,06,09,00,03,0.00
2008,06,09,00,04,0.00
2008,06,09,00,05,0.00
2008,06,09,00,06,0.00
2008,06,09,00,07,0.00
2008,06,09,00,08,0.00
2008,06,09,00,09,0.00
2008,06,09,00,10,0.00
2008,06,09,00,11,1.60
2008,06,09,00,12,1.60
2008,06,09,00,13,1.60
2008,06,09,00,14,1.60
2008,06,09,00,15,3.20
2008,06,09,00,16,1.60
2008,06,09,00,17,0.00
2008,06,09,00,18,0.00
2008,06,09,00,19,0.00
2008,06,09,00,20,0.00
2008,06,09,00,21,1.60
2008,06,09,00,22,1.60
2008,06,09,00,23,1.60
2008,06,09,00,24,1.60
2008,06,09,00,25,1.60
2008,06,09,00,26,1.60
2008,06,09,00,27,1.60
2008,06,09,00,28,1.60
2008,06,09,00,29,0.00
2008,06,09,00,30,0.00
2008,06,09,00,31,0.00
2008,06,09,00,32,0.00
2008,06,09,00,33,0.00
2008,06,09,00,34,0.00
2008,06,09,00,35,0.00
2008,06,09,00,36,0.00
2008,06,09,00,37,0.00
2008,06,09,00,38,0.00
2008,06,09,00,39,1.60
2008,06,09,00,40,1.60
2008,06,09,00,41,1.60
2008,06,09,00,42,1.60
2008,06,09,00,43,1.60
2008,06,09,00,44,1.60
2008,06,09,00,45,0.00
2008,06,09,00,46,0.00
2008,06,09,00,47,0.00
2008,06,09,00,48,0.00
2008,06,09,00,49,0.00
2008,06,09,00,50,0.00
2008,06,09,00,51,0.00
2008,06,09,00,52,1.60
2008,06,09,00,53,1.60
2008,06,09,00,54,0.00
2008,06,09,00,55,0.00
2008,06,09,00,56,1.60
2008,06,09,00,57,1.60
2008,06,09,00,58,0.00
2008,06,09,00,59,0.00
2008,06,09,01,00,0.00
2008,06,09,01,01,0.00
2008,06,09,01,02,0.00
2008,06,09,01,03,1.60
2008,06,09,01,04,3.20
2008,06,09,01,05,1.60
2008,06,09,01,06,1.60
2008,06,09,01,07,3.20
2008,06,09,01,08,3.20
2008,06,09,01,09,1.60
2008,06,09,01,10,3.20
2008,06,09,01,11,3.20
2008,06,09,01,12,1.60
2008,06,09,01,13,1.60
2008,06,09,01,14,3.20
2008,06,09,01,15,1.60
2008,06,09,01,16,3.20
2008,06,09,01,17,3.20
2008,06,09,01,18,3.20
2008,06,09,01,19,1.60
2008,06,09,01,20,0.00
2008,06,09,01,21,0.00
2008,06,09,01,22,0.00
2008,06,09,01,23,0.00
2008,06,09,01,24,3.20
2008,06,09,01,25,1.60
2008,06,09,01,26,1.60
2008,06,09,01,27,1.60
2008,06,09,01,28,1.60
2008,06,09,01,29,1.60
2008,06,09,01,30,0.00
2008,06,09,01,31,0.00
2008,06,09,01,32,0.00
2008,06,09,01,33,0.00
2008,06,09,01,34,0.00
2008,06,09,01,35,0.00
2008,06,09,01,36,0.00
2008,06,09,01,37,0.00
2008,06,09,01,38,0.00
2008,06,09,01,39,0.00
2008,06,09,01,40,0.00
2008,06,09,01,41,0.00
2008,06,09,01,42,0.00
2008,06,09,01,43,0.00
2008,06,09,01,44,0.00
2008,06,09,01,45,0.00
2008,06,09,01,46,0.00
2008,06,09,01,47,0.00
2008,06,09,01,48,0.00
2008,06,09,01,49,0.00
2008,06,09,01,50,0.00
2008,06,09,01,51,0.00
2008,06,09,01,52,0.00
2008,06,09,01,53,0.00
2008,06,09,01,54,0.00
2008,06,09,01,55,0.00
2008,06,09,01,56,0.00
2008,06,09,01,57,3.20
2008,06,09,01,58,4.80
2008,06,09,01,59,4.80
2008,06,09,02,00,4.80
2008,06,09,02,01,4.80
2008,06,09,02,02,6.40
2008,06,09,02,03,4.80
2008,06,09,02,04,4.80
2008,06,09,02,05,6.40
2008,06,09,02,06,4.80
2008,06,09,02,07,4.80
2008,06,09,02,08,6.40
2008,06,09,02,09,6.40
2008,06,09,02,10,8.10
2008,06,09,02,11,6.40
2008,06,09,02,12,6.40
2008,06,09,02,13,8.10
2008,06,09,02,14,8.10
2008,06,09,02,15,8.10
2008,06,09,02,16,8.10
2008,06,09,02,17,4.80
2008,06,09,02,18,4.80
2008,06,09,02,19,6.40
2008,06,09,02,20,3.20
2008,06,09,02,21,3.20
2008,06,09,02,22,1.60
2008,06,09,02,23,1.60
2008,06,09,02,24,1.60
2008,06,09,02,25,3.20
2008,06,09,02,26,4.80
2008,06,09,02,27,6.40
2008,06,09,02,28,4.80
2008,06,09,02,29,3.20
2008,06,09,02,30,3.20
2008,06,09,02,31,1.60
2008,06,09,02,32,1.60
2008,06,09,02,33,3.20
2008,06,09,02,34,3.20
2008,06,09,02,35,3.20
2008,06,09,02,36,1.60
2008,06,09,02,37,1.60
2008,06,09,02,38,1.60
2008,06,09,02,39,0.00
2008,06,09,02,40,0.00
2008,06,09,02,41,0.00
2008,06,09,02,42,0.00
2008,06,09,02,43,0.00
2008,06,09,02,44,0.00
2008,06,09,02,45,0.00
2008,06,09,02,46,0.00
2008,06,09,02,47,0.00
2008,06,09,02,48,0.00
2008,06,09,02,49,0.00
2008,06,09,02,50,0.00
2008,06,09,02,51,1.60
2008,06,09,02,52,0.00
2008,06,09,02,53,0.00
2008,06,09,02,54,0.00
2008,06,09,02,55,1.60
2008,06,09,02,56,0.00
2008,06,09,02,57,0.00
2008,06,09,02,58,0.00
2008,06,09,02,59,0.00
2008,06,09,03,00,0.00
2008,06,09,03,01,1.60
2008,06,09,03,02,3.20
2008,06,09,03,03,3.20
2008,06,09,03,04,0.00
2008,06,09,03,05,0.00
2008,06,09,03,06,0.00
2008,06,09,03,07,0.00
2008,06,09,03,08,1.60
2008,06,09,03,09,3.20
2008,06,09,03,10,1.60
2008,06,09,03,11,1.60
2008,06,09,03,12,0.00
2008,06,09,03,13,0.00
2008,06,09,03,14,0.00
2008,06,09,03,15,1.60
2008,06,09,03,16,3.20
2008,06,09,03,17,3.20
2008,06,09,03,18,1.60
2008,06,09,03,19,1.60
2008,06,09,03,20,1.60
2008,06,09,03,21,1.60
2008,06,09,03,22,0.00
2008,06,09,03,23,0.00
2008,06,09,03,24,0.00
2008,06,09,03,25,0.00
2008,06,09,03,26,0.00
2008,06,09,03,27,0.00
2008,06,09,03,28,0.00
2008,06,09,03,29,1.60
2008,06,09,03,30,1.60
2008,06,09,03,31,0.00
2008,06,09,03,32,1.60
2008,06,09,03,33,1.60
2008,06,09,03,34,1.60
2008,06,09,03,35,1.60
2008,06,09,03,36,1.60
2008,06,09,03,37,1.60
2008,06,09,03,38,1.60
2008,06,09,03,39,1.60
2008,06,09,03,40,1.60
2008,06,09,03,41,0.00
2008,06,09,03,42,0.00
2008,06,09,03,43,0.00
2008,06,09,03,44,0.00
2008,06,09,03,45,0.00
2008,06,09,03,46,0.00
2008,06,09,03,47,0.00
2008,06,09,03,48,0.00
2008,06,09,03,49,1.60
2008,06,09,03,50,1.60
2008,06,09,03,51,1.60
2008,06,09,03,52,1.60
2008,06,09,03,53,0.00
2008,06,09,03,54,1.60
2008,06,09,03,55,1.60
2008,06,09,03,56,1.60
2008,06,09,03,57,1.60
2008,06,09,03,58,0.00
2008,06,09,03,59,0.00
2008,06,09,04,00,0.00
2008,06,09,04,01,0.00
2008,06,09,04,02,0.00
2008,06,09,04,03,0.00
2008,06,09,04,04,0.00
2008,06,09,04,05,0.00
2008,06,09,04,06,0.00
2008,06,09,04,07,0.00
2008,06,09,04,08,0.00
2008,06,09,04,09,1.60
2008,06,09,04,10,1.60
2008,06,09,04,11,1.60
2008,06,09,04,12,1.60
2008,06,09,04,13,1.60
2008,06,09,04,14,0.00
2008,06,09,04,15,0.00
2008,06,09,04,16,0.00
2008,06,09,04,17,0.00
2008,06,09,04,18,0.00
2008,06,09,04,19,0.00
2008,06,09,04,20,0.00
2008,06,09,04,21,1.60
2008,06,09,04,22,3.20
2008,06,09,04,23,0.00
2008,06,09,04,24,1.60
2008,06,09,04,25,1.60
2008,06,09,04,26,0.00
2008,06,09,04,27,0.00
2008,06,09,04,28,0.00
2008,06,09,04,29,1.60
2008,06,09,04,30,1.60
2008,06,09,04,31,0.00
2008,06,09,04,32,0.00
2008,06,09,04,33,0.00
2008,06,09,04,34,1.60
2008,06,09,04,35,1.60
2008,06,09,04,36,1.60
2008,06,09,04,37,1.60
2008,06,09,04,38,1.60
2008,06,09,04,39,1.60
2008,06,09,04,40,1.60
2008,06,09,04,41,0.00
2008,06,09,04,42,0.00
2008,06,09,04,43,1.60
2008,06,09,04,44,1.60
2008,06,09,04,45,1.60
2008,06,09,04,46,1.60
2008,06,09,04,47,0.00
2008,06,09,04,48,0.00
2008,06,09,04,49,1.60
2008,06,09,04,50,1.60
2008,06,09,04,51,1.60
2008,06,09,04,52,1.60
2008,06,09,04,53,1.60
2008,06,09,04,54,0.00
2008,06,09,04,55,1.60
2008,06,09,04,56,0.00
2008,06,09,04,57,1.60
2008,06,09,04,58,0.00
2008,06,09,04,59,1.60
2008,06,09,05,00,1.60
2008,06,09,05,01,1.60
2008,06,09,05,02,0.00
2008,06,09,05,03,0.00
2008,06,09,05,04,0.00
2008,06,09,05,05,0.00
2008,06,09,05,06,0.00
2008,06,09,05,07,0.00
2008,06,09,05,08,0.00
2008,06,09,05,09,0.00
2008,06,09,05,10,0.00
2008,06,09,05,11,0.00
2008,06,09,05,12,0.00
2008,06,09,05,13,0.00
2008,06,09,05,14,0.00
2008,06,09,05,15,0.00
2008,06,09,05,16,0.00
2008,06,09,05,17,0.00
2008,06,09,05,18,0.00
2008,06,09,05,19,0.00
2008,06,09,05,20,0.00
2008,06,09,05,21,0.00
2008,06,09,05,22,0.00
2008,06,09,05,23,0.00
2008,06,09,05,24,0.00
2008,06,09,05,25,1.60
2008,06,09,05,26,0.00
2008,06,09,05,27,1.60
2008,06,09,05,28,1.60
2008,06,09,05,29,0.00
2008,06,09,05,30,0.00
2008,06,09,05,31,0.00
2008,06,09,05,32,0.00
2008,06,09,05,33,0.00
2008,06,09,05,34,0.00
2008,06,09,05,35,0.00
2008,06,09,05,36,0.00
2008,06,09,05,37,0.00
2008,06,09,05,38,0.00
2008,06,09,05,39,0.00
2008,06,09,05,40,0.00
2008,06,09,05,41,0.00
2008,06,09,05,42,1.60
2008,06,09,05,43,1.60
2008,06,09,05,44,1.60
2008,06,09,05,45,1.60
2008,06,09,05,46,3.20
2008,06,09,05,47,3.20
2008,06,09,05,48,3.20
2008,06,09,05,49,3.20
2008,06,09,05,50,1.60
2008,06,09,05,51,0.00
2008,06,09,05,52,1.60
2008,06,09,05,53,1.60
2008,06,09,05,54,0.00
2008,06,09,05,55,0.00
2008,06,09,05,56,0.00
2008,06,09,05,57,0.00
2008,06,09,05,58,0.00
2008,06,09,05,59,0.00
2008,06,09,06,00,1.60
2008,06,09,06,01,1.60
2008,06,09,06,02,1.60
2008,06,09,06,03,1.60
2008,06,09,06,04,1.60
2008,06,09,06,05,0.00
2008,06,09,06,06,1.60
2008,06,09,06,07,1.60
2008,06,09,06,08,1.60
2008,06,09,06,09,1.60
2008,06,09,06,10,1.60
2008,06,09,06,11,1.60
2008,06,09,06,12,0.00
2008,06,09,06,13,1.60
2008,06,09,06,14,0.00
2008,06,09,06,15,1.60
2008,06,09,06,16,1.60
2008,06,09,06,17,1.60
2008,06,09,06,18,0.00
2008,06,09,06,19,0.00
2008,06,09,06,20,0.00
2008,06,09,06,21,1.60
2008,06,09,06,22,1.60
2008,06,09,06,23,0.00
2008,06,09,06,24,0.00
2008,06,09,06,25,0.00
2008,06,09,06,26,0.00
2008,06,09,06,27,0.00
2008,06,09,06,28,0.00
2008,06,09,06,29,1.60
2008,06,09,06,30,1.60
2008,06,09,06,31,1.60
2008,06,09,06,32,3.20
2008,06,09,06,33,1.60
2008,06,09,06,34,1.60
2008,06,09,06,35,0.00
2008,06,09,06,36,3.20
2008,06,09,06,37,3.20
2008,06,09,06,38,3.20
2008,06,09,06,39,3.20
2008,06,09,06,40,3.20
2008,06,09,06,41,4.80
2008,06,09,06,42,3.20
2008,06,09,06,43,4.80
2008,06,09,06,44,4.80
2008,06,09,06,45,4.80
2008,06,09,06,46,3.20
2008,06,09,06,47,3.20
2008,06,09,06,48,1.60
2008,06,09,06,49,1.60
2008,06,09,06,50,3.20
2008,06,09,06,51,3.20
2008,06,09,06,52,1.60
2008,06,09,06,53,1.60
2008,06,09,06,54,1.60
2008,06,09,06,55,3.20
2008,06,09,06,56,3.20
2008,06,09,06,57,3.20
2008,06,09,06,58,1.60
2008,06,09,06,59,1.60
2008,06,09,07,00,4.80
2008,06,09,07,01,3.20
2008,06,09,07,02,1.60
2008,06,09,07,03,1.60
2008,06,09,07,04,1.60
2008,06,09,07,05,3.20
2008,06,09,07,06,4.80
2008,06,09,07,07,4.80
2008,06,09,07,08,4.80
2008,06,09,07,09,3.20
2008,06,09,07,10,1.60
2008,06,09,07,11,1.60
2008,06,09,07,12,3.20
2008,06,09,07,13,3.20
2008,06,09,07,14,1.60
2008,06,09,07,15,1.60
2008,06,09,07,16,1.60
2008,06,09,07,17,1.60
2008,06,09,07,18,1.60
2008,06,09,07,19,1.60
2008,06,09,07,20,3.20
2008,06,09,07,21,3.20
2008,06,09,07,22,3.20
2008,06,09,07,23,1.60
2008,06,09,07,24,1.60
2008,06,09,07,25,3.20
2008,06,09,07,26,3.20
2008,06,09,07,27,3.20
2008,06,09,07,28,3.20
2008,06,09,07,29,4.80
2008,06,09,07,30,4.80
2008,06,09,07,31,4.80
2008,06,09,07,32,3.20
2008,06,09,07,33,1.60
2008,06,09,07,34,3.20
2008,06,09,07,35,3.20
2008,06,09,07,36,4.80
2008,06,09,07,37,6.40
2008,06,09,07,38,4.80
2008,06,09,07,39,3.20
2008,06,09,07,40,3.20
2008,06,09,07,41,3.20
2008,06,09,07,42,3.20
2008,06,09,07,43,1.60
2008,06,09,07,44,4.80
2008,06,09,07,45,3.20
2008,06,09,07,46,1.60
2008,06,09,07,47,4.80
2008,06,09,07,48,4.80
2008,06,09,07,49,4.80
2008,06,09,07,50,3.20
2008,06,09,07,51,3.20
2008,06,09,07,52,3.20
2008,06,09,07,53,1.60
2008,06,09,07,54,3.20
2008,06,09,07,55,1.60
2008,06,09,07,56,1.60
2008,06,09,07,57,0.00
2008,06,09,07,58,0.00
2008,06,09,07,59,0.00
2008,06,09,08,00,1.60
2008,06,09,08,01,1.60
2008,06,09,08,02,4.80
2008,06,09,08,03,3.20
2008,06,09,08,04,3.20
2008,06,09,08,05,1.60
2008,06,09,08,06,6.40
2008,06,09,08,07,8.10
2008,06,09,08,08,4.80
2008,06,09,08,09,3.20
2008,06,09,08,10,4.80
2008,06,09,08,11,3.20
2008,06,09,08,12,4.80
2008,06,09,08,13,3.20
2008,06,09,08,14,4.80
2008,06,09,08,15,6.40
2008,06,09,08,16,6.40
2008,06,09,08,17,6.40
2008,06,09,08,18,4.80
2008,06,09,08,19,3.20
2008,06,09,08,20,6.40
2008,06,09,08,21,6.40
2008,06,09,08,22,4.80
2008,06,09,08,23,3.20
2008,06,09,08,24,3.20
2008,06,09,08,25,3.20
2008,06,09,08,26,3.20
2008,06,09,08,27,3.20
2008,06,09,08,28,0.00
2008,06,09,08,29,0.00
2008,06,09,08,30,1.60
2008,06,09,08,31,3.20
2008,06,09,08,32,3.20
2008,06,09,08,33,4.80
2008,06,09,08,34,3.20
2008,06,09,08,35,3.20
2008,06,09,08,36,3.20
2008,06,09,08,37,3.20
2008,06,09,08,38,3.20
2008,06,09,08,39,1.60
2008,06,09,08,40,3.20
2008,06,09,08,41,3.20
2008,06,09,08,42,1.60
2008,06,09,08,43,0.00
2008,06,09,08,44,0.00
2008,06,09,08,45,0.00
2008,06,09,08,46,1.60
2008,06,09,08,47,1.60
2008,06,09,08,48,3.20
2008,06,09,08,49,0.00
2008,06,09,08,50,0.00
2008,06,09,08,51,1.60
2008,06,09,08,52,1.60
2008,06,09,08,53,1.60
2008,06,09,08,54,0.00
2008,06,09,08,55,1.60
2008,06,09,08,56,0.00
2008,06,09,08,57,1.60
2008,06,09,08,58,3.20
2008,06,09,08,59,0.00
2008,06,09,09,00,1.60
2008,06,09,09,01,1.60
2008,06,09,09,02,4.80
2008,06,09,09,03,4.80
2008,06,09,09,04,4.80
2008,06,09,09,05,6.40
2008,06,09,09,06,6.40
2008,06,09,09,07,6.40
2008,06,09,09,08,8.10
2008,06,09,09,09,4.80
2008,06,09,09,10,4.80
2008,06,09,09,11,1.60
2008,06,09,09,12,4.80
2008,06,09,09,13,4.80
2008,06,09,09,14,6.40
2008,06,09,09,15,3.20
2008,06,09,09,16,4.80
2008,06,09,09,17,4.80
2008,06,09,09,18,4.80
2008,06,09,09,19,4.80
2008,06,09,09,20,6.40
2008,06,09,09,21,4.80
2008,06,09,09,22,4.80
2008,06,09,09,23,1.60
2008,06,09,09,24,1.60
2008,06,09,09,25,1.60
2008,06,09,09,26,1.60
2008,06,09,09,27,4.80
2008,06,09,09,28,4.80
2008,06,09,09,29,6.40
2008,06,09,09,30,8.10
2008,06,09,09,31,6.40
2008,06,09,09,32,3.20
2008,06,09,09,33,1.60
2008,06,09,09,34,3.20
2008,06,09,09,35,3.20
2008,06,09,09,36,1.60
2008,06,09,09,37,1.60
2008,06,09,09,38,4.80
2008,06,09,09,39,1.60
2008,06,09,09,40,1.60
2008,06,09,09,41,6.40
2008,06,09,09,42,4.80
2008,06,09,09,43,4.80
2008,06,09,09,44,4.80
2008,06,09,09,45,6.40
2008,06,09,09,46,3.20
2008,06,09,09,47,1.60
2008,06,09,09,48,4.80
2008,06,09,09,49,4.80
2008,06,09,09,50,3.20
2008,06,09,09,51,3.20
2008,06,09,09,52,4.80
2008,06,09,09,53,3.20
2008,06,09,09,54,4.80
2008,06,09,09,55,1.60
2008,06,09,09,56,4.80
2008,06,09,09,57,6.40
2008,06,09,09,58,4.80
2008,06,09,09,59,3.20
2008,06,09,10,00,3.20
2008,06,09,10,01,1.60
2008,06,09,10,02,3.20
2008,06,09,10,03,0.00
2008,06,09,10,04,4.80
2008,06,09,10,05,4.80
2008,06,09,10,06,4.80
2008,06,09,10,07,4.80
2008,06,09,10,08,1.60
2008,06,09,10,09,1.60
2008,06,09,10,10,3.20
2008,06,09,10,11,1.60
2008,06,09,10,12,4.80
2008,06,09,10,13,3.20
2008,06,09,10,14,3.20
2008,06,09,10,15,3.20
2008,06,09,10,16,3.20
2008,06,09,10,17,3.20
2008,06,09,10,18,3.20
2008,06,09,10,19,1.60
2008,06,09,10,20,1.60
2008,06,09,10,21,1.60
2008,06,09,10,22,3.20
2008,06,09,10,23,1.60
2008,06,09,10,24,1.60
2008,06,09,10,25,0.00
2008,06,09,10,26,0.00
2008,06,09,10,27,1.60
2008,06,09,10,28,3.20
2008,06,09,10,29,3.20
2008,06,09,10,30,3.20
2008,06,09,10,31,3.20
2008,06,09,10,32,3.20
2008,06,09,10,33,1.60
2008,06,09,10,34,0.00
2008,06,09,10,35,1.60
2008,06,09,10,36,4.80
2008,06,09,10,37,1.60
2008,06,09,10,38,1.60
2008,06,09,10,39,1.60
2008,06,09,10,40,3.20
2008,06,09,10,41,3.20
2008,06,09,10,42,0.00
2008,06,09,10,43,4.80
2008,06,09,10,44,1.60
2008,06,09,10,45,0.00
2008,06,09,10,46,0.00
2008,06,09,10,47,1.60
2008,06,09,10,48,1.60
2008,06,09,10,49,1.60
2008,06,09,10,50,4.80
2008,06,09,10,51,3.20
2008,06,09,10,52,1.60
2008,06,09,10,53,1.60
2008,06,09,10,54,1.60
2008,06,09,10,55,1.60
2008,06,09,10,56,1.60
2008,06,09,10,57,0.00
2008,06,09,10,58,1.60
2008,06,09,10,59,4.80
2008,06,09,11,00,1.60
2008,06,09,11,01,3.20
2008,06,09,11,02,3.20
2008,06,09,11,03,1.60
2008,06,09,11,04,3.20
2008,06,09,11,05,3.20
2008,06,09,11,06,3.20
2008,06,09,11,07,3.20
2008,06,09,11,08,4.80
2008,06,09,11,09,4.80
2008,06,09,11,10,6.40
2008,06,09,11,11,3.20
2008,06,09,11,12,1.60
2008,06,09,11,13,1.60
2008,06,09,11,14,1.60
2008,06,09,11,15,1.60
2008,06,09,11,16,1.60
2008,06,09,11,17,3.20
2008,06,09,11,18,1.60
2008,06,09,11,19,3.20
2008,06,09,11,20,1.60
2008,06,09,11,21,1.60
2008,06,09,11,22,1.60
2008,06,09,11,23,4.80
2008,06,09,11,24,6.40
2008,06,09,11,25,3.20
2008,06,09,11,26,4.80
2008,06,09,11,27,4.80
2008,06,09,11,28,1.60
2008,06,09,11,29,1.60
2008,06,09,11,30,1.60
2008,06,09,11,31,4.80
2008,06,09,11,32,1.60
2008,06,09,11,33,3.20
2008,06,09,11,34,4.80
2008,06,09,11,35,3.20
2008,06,09,11,36,1.60
2008,06,09,11,37,3.20
2008,06,09,11,38,4.80
2008,06,09,11,39,6.40
2008,06,09,11,40,3.20
2008,06,09,11,41,4.80
2008,06,09,11,42,3.20
2008,06,09,11,43,6.40
2008,06,09,11,44,3.20
2008,06,09,11,45,3.20
2008,06,09,11,46,3.20
2008,06,09,11,47,4.80
2008,06,09,11,48,4.80
2008,06,09,11,49,3.20
2008,06,09,11,50,4.80
2008,06,09,11,51,3.20
2008,06,09,11,52,3.20
2008,06,09,11,53,4.80
2008,06,09,11,54,4.80
2008,06,09,11,55,4.80
2008,06,09,11,56,0.00
2008,06,09,11,57,1.60
2008,06,09,11,58,4.80
2008,06,09,11,59,6.40
2008,06,09,12,00,4.80
2008,06,09,12,01,11.30
2008,06,09,12,02,6.40
2008,06,09,12,03,3.20
2008,06,09,12,04,8.10
2008,06,09,12,05,4.80
2008,06,09,12,06,4.80
2008,06,09,12,07,8.10
2008,06,09,12,08,6.40
2008,06,09,12,09,14.50
2008,06,09,12,10,9.60
2008,06,09,12,11,11.30
2008,06,09,12,12,9.60
2008,06,09,12,13,9.60
2008,06,09,12,14,3.20
2008,06,09,12,15,6.40
2008,06,09,12,16,4.80
2008,06,09,12,17,4.80
2008,06,09,12,18,1.60
2008,06,09,12,19,9.60
2008,06,09,12,20,6.40
2008,06,09,12,21,4.80
2008,06,09,12,22,3.20
2008,06,09,12,23,3.20
2008,06,09,12,24,8.10
2008,06,09,12,25,6.40
2008,06,09,12,26,3.20
2008,06,09,12,27,6.40
2008,06,09,12,28,3.20
2008,06,09,12,29,4.80
2008,06,09,12,30,6.40
2008,06,09,12,31,6.40
2008,06,09,12,32,4.80
2008,06,09,12,33,6.40
2008,06,09,12,34,3.20
2008,06,09,12,35,4.80
2008,06,09,12,36,4.80
2008,06,09,12,37,4.80
2008,06,09,12,38,3.20
2008,06,09,12,39,6.40
2008,06,09,12,40,6.40
2008,06,09,12,41,6.40
2008,06,09,12,42,8.10
2008,06,09,12,43,6.40
2008,06,09,12,44,4.80
2008,06,09,12,45,6.40
2008,06,09,12,46,4.80
2008,06,09,12,47,9.60
2008,06,09,12,48,9.60
2008,06,09,12,49,9.60
2008,06,09,12,50,4.80
2008,06,09,12,51,6.40
2008,06,09,12,52,4.80
2008,06,09,12,53,6.40
2008,06,09,12,54,3.20
2008,06,09,12,55,3.20
2008,06,09,12,56,0.00
2008,06,09,12,57,3.20
2008,06,09,12,58,4.80
2008,06,09,12,59,4.80
2008,06,09,13,00,4.80
2008,06,09,13,01,4.80
2008,06,09,13,02,9.60
2008,06,09,13,03,8.10
2008,06,09,13,04,6.40
2008,06,09,13,05,8.10
2008,06,09,13,06,4.80
2008,06,09,13,07,6.40
2008,06,09,13,08,3.20
2008,06,09,13,09,3.20
2008,06,09,13,10,4.80
2008,06,09,13,11,6.40
2008,06,09,13,12,3.20
2008,06,09,13,13,0.00
2008,06,09,13,14,1.60
2008,06,09,13,15,3.20
2008,06,09,13,16,3.20
2008,06,09,13,17,4.80
2008,06,09,13,18,3.20
2008,06,09,13,19,1.60
2008,06,09,13,20,6.40
2008,06,09,13,21,8.10
2008,06,09,13,22,6.40
2008,06,09,13,23,3.20
2008,06,09,13,24,8.10
2008,06,09,13,25,9.60
2008,06,09,13,26,6.40
2008,06,09,13,27,4.80
2008,06,09,13,28,1.60
2008,06,09,13,29,4.80
2008,06,09,13,30,3.20
2008,06,09,13,31,1.60
2008,06,09,13,32,4.80
2008,06,09,13,33,4.80
2008,06,09,13,34,4.80
2008,06,09,13,35,9.60
2008,06,09,13,36,4.80
2008,06,09,13,37,4.80
2008,06,09,13,38,1.60
2008,06,09,13,39,9.60
2008,06,09,13,40,4.80
2008,06,09,13,41,4.80
2008,06,09,13,42,3.20
2008,06,09,13,43,8.10
2008,06,09,13,44,6.40
2008,06,09,13,45,4.80
2008,06,09,13,46,4.80
2008,06,09,13,47,6.40
2008,06,09,13,48,4.80
2008,06,09,13,49,6.40
2008,06,09,13,50,6.40
2008,06,09,13,51,4.80
2008,06,09,13,52,1.60
2008,06,09,13,53,1.60
2008,06,09,13,54,6.40
2008,06,09,13,55,1.60
2008,06,09,13,56,3.20
2008,06,09,13,57,1.60
2008,06,09,13,58,4.80
2008,06,09,13,59,4.80
2008,06,09,14,00,3.20
2008,06,09,14,01,1.60
2008,06,09,14,02,4.80
2008,06,09,14,03,4.80
2008,06,09,14,04,4.80
2008,06,09,14,05,6.40
2008,06,09,14,06,3.20
2008,06,09,14,07,3.20
2008,06,09,14,08,6.40
2008,06,09,14,09,4.80
2008,06,09,14,10,3.20
2008,06,09,14,11,3.20
2008,06,09,14,12,3.20
2008,06,09,14,13,6.40
2008,06,09,14,14,9.60
2008,06,09,14,15,4.80
2008,06,09,14,16,1.60
2008,06,09,14,17,9.60
2008,06,09,14,18,8.10
2008,06,09,14,19,6.40
2008,06,09,14,20,8.10
2008,06,09,14,21,6.40
2008,06,09,14,22,4.80
2008,06,09,14,23,6.40
2008,06,09,14,24,6.40
2008,06,09,14,25,8.10
2008,06,09,14,26,6.40
2008,06,09,14,27,4.80
2008,06,09,14,28,3.20
2008,06,09,14,29,8.10
2008,06,09,14,30,8.10
2008,06,09,14,31,8.10
2008,06,09,14,32,9.60
2008,06,09,14,33,4.80
2008,06,09,14,34,6.40
2008,06,09,14,35,9.60
2008,06,09,14,36,9.60
2008,06,09,14,37,8.10
2008,06,09,14,38,6.40
2008,06,09,14,39,9.60
2008,06,09,14,40,11.30
2008,06,09,14,41,8.10
2008,06,09,14,42,9.60
2008,06,09,14,43,11.30
2008,06,09,14,44,9.60
2008,06,09,14,45,6.40
2008,06,09,14,46,11.30
2008,06,09,14,47,11.30
2008,06,09,14,48,9.60
2008,06,09,14,49,11.30
2008,06,09,14,50,9.60
2008,06,09,14,51,11.30
2008,06,09,14,52,11.30
2008,06,09,14,53,14.50
2008,06,09,14,54,17.70
2008,06,09,14,55,19.30
2008,06,09,14,56,16.10
2008,06,09,14,57,17.70
2008,06,09,14,58,17.70
2008,06,09,14,59,9.60
2008,06,09,15,00,9.60
2008,06,09,15,01,9.60
2008,06,09,15,02,16.10
2008,06,09,15,03,11.30
2008,06,09,15,04,9.60
2008,06,09,15,05,9.60
2008,06,09,15,06,9.60
2008,06,09,15,07,8.10
2008,06,09,15,08,6.40
2008,06,09,15,09,9.60
2008,06,09,15,10,4.80
2008,06,09,15,11,4.80
2008,06,09,15,12,8.10
2008,06,09,15,13,8.10
2008,06,09,15,14,14.50
2008,06,09,15,15,17.70
2008,06,09,15,16,16.10
2008,06,09,15,17,17.70
2008,06,09,15,18,16.10
2008,06,09,15,19,12.90
2008,06,09,15,20,9.60
2008,06,09,15,21,9.60
2008,06,09,15,22,11.30
2008,06,09,15,23,17.70
2008,06,09,15,24,16.10
2008,06,09,15,25,12.90
2008,06,09,15,26,11.30
2008,06,09,15,27,6.40
2008,06,09,15,28,9.60
2008,06,09,15,29,8.10
2008,06,09,15,30,8.10
2008,06,09,15,31,9.60
2008,06,09,15,32,8.10
2008,06,09,15,33,12.90
2008,06,09,15,34,11.30
2008,06,09,15,35,8.10
2008,06,09,15,36,6.40
2008,06,09,15,37,6.40
2008,06,09,15,38,3.20
2008,06,09,15,39,1.60
2008,06,09,15,40,3.20
2008,06,09,15,41,4.80
2008,06,09,15,42,6.40
2008,06,09,15,43,4.80
2008,06,09,15,44,6.40
2008,06,09,15,45,6.40
2008,06,09,15,46,9.60
2008,06,09,15,47,6.40
2008,06,09,15,48,6.40
2008,06,09,15,49,6.40
2008,06,09,15,50,8.10
2008,06,09,15,51,3.20
2008,06,09,15,52,14.50
2008,06,09,15,53,16.10
2008,06,09,15,54,14.50
2008,06,09,15,55,9.60
2008,06,09,15,56,8.10
2008,06,09,15,57,6.40
2008,06,09,15,58,6.40
2008,06,09,15,59,11.30
2008,06,09,16,00,11.30
2008,06,09,16,01,11.30
2008,06,09,16,02,11.30
2008,06,09,16,03,8.10
2008,06,09,16,04,9.60
2008,06,09,16,05,9.60
2008,06,09,16,06,11.30
2008,06,09,16,07,11.30
2008,06,09,16,08,11.30
2008,06,09,16,09,9.60
2008,06,09,16,10,11.30
2008,06,09,16,11,6.40
2008,06,09,16,12,6.40
2008,06,09,16,13,14.50
2008,06,09,16,14,9.60
2008,06,09,16,15,9.60
2008,06,09,16,16,8.10
2008,06,09,16,17,6.40
2008,06,09,16,18,4.80
2008,06,09,16,19,6.40
2008,06,09,16,20,6.40
2008,06,09,16,21,8.10
2008,06,09,16,22,6.40
2008,06,09,16,23,12.90
2008,06,09,16,24,11.30
2008,06,09,16,25,9.60
2008,06,09,16,26,14.50
2008,06,09,16,27,8.10
2008,06,09,16,28,11.30
2008,06,09,16,29,9.60
2008,06,09,16,30,6.40
2008,06,09,16,31,8.10
2008,06,09,16,32,4.80
2008,06,09,16,33,8.10
2008,06,09,16,34,4.80
2008,06,09,16,35,4.80
2008,06,09,16,36,4.80
2008,06,09,16,37,4.80
2008,06,09,16,38,3.20
2008,06,09,16,39,4.80
2008,06,09,16,40,1.60
2008,06,09,16,41,4.80
2008,06,09,16,42,8.10
2008,06,09,16,43,14.50
2008,06,09,16,44,9.60
2008,06,09,16,45,1.60
2008,06,09,16,46,6.40
2008,06,09,16,47,6.40
2008,06,09,16,48,1.60
2008,06,09,16,49,12.90
2008,06,09,16,50,11.30
2008,06,09,16,51,12.90
2008,06,09,16,52,9.60
2008,06,09,16,53,8.10
2008,06,09,16,54,9.60
2008,06,09,16,55,8.10
2008,06,09,16,56,3.20
2008,06,09,16,57,9.60
2008,06,09,16,58,8.10
2008,06,09,16,59,4.80
2008,06,09,17,00,20.90
2008,06,09,17,01,24.20
2008,06,09,17,02,20.90
2008,06,09,17,03,25.70
2008,06,09,17,04,29.00
2008,06,09,17,05,25.70
2008,06,09,17,06,49.90
2008,06,09,17,07,51.50
2008,06,09,17,08,49.90
2008,06,09,17,09,41.80
2008,06,09,17,10,43.50
2008,06,09,17,11,33.80
2008,06,09,17,12,48.30
2008,06,09,17,13,48.30
2008,06,09,17,14,37.00
2008,06,09,17,15,53.10
2008,06,09,17,16,38.60
2008,06,09,17,17,56.30
2008,06,09,17,18,48.30
2008,06,09,17,19,46.70
2008,06,09,17,20,53.10
2008,06,09,17,21,46.70
2008,06,09,17,22,33.80
2008,06,09,17,23,32.20
2008,06,09,17,24,40.20
2008,06,09,17,25,45.10
2008,06,09,17,26,51.50
2008,06,09,17,27,41.80
2008,06,09,17,28,54.70
2008,06,09,17,29,43.50
2008,06,09,17,30,27.40
2008,06,09,17,31,37.00
2008,06,09,17,32,29.00
2008,06,09,17,33,35.40
2008,06,09,17,34,41.80
2008,06,09,17,35,37.00
2008,06,09,17,36,46.70
2008,06,09,17,37,48.30
2008,06,09,17,38,53.10
2008,06,09,17,39,59.50
2008,06,09,17,40,33.80
2008,06,09,17,41,38.60
2008,06,09,17,42,56.30
2008,06,09,17,43,41.80
2008,06,09,17,44,49.90
2008,06,09,17,45,53.10
2008,06,09,17,46,24.20
2008,06,09,17,47,51.50
2008,06,09,17,48,56.30
2008,06,09,17,49,37.00
2008,06,09,17,50,48.30
2008,06,09,17,51,53.10
2008,06,09,17,52,53.10
2008,06,09,17,53,41.80
2008,06,09,17,54,43.50
2008,06,09,17,55,33.80
2008,06,09,17,56,32.20
2008,06,09,17,57,53.10
2008,06,09,17,58,43.50
2008,06,09,17,59,41.80
2008,06,09,18,00,40.20
2008,06,09,18,01,38.60